Location: New Canada
(47.1017°N, 68.5042°W)
Time: 15:59:26
(UTC+00:00)

RS-44 - Pass Details

Date: 19 April 2024
Orbit: 1174 x 1511 km, 82.5° (Epoch: 20 May)

Event Time Altitude Azimuth Distance (km) Brightness Sun altitude
Rises 02:07:59 0° 223° (SW) 4,641 ? -23.2°
Reaches altitude 10° 02:11:20 10° 232° (SW) 3,652 ? -23.6°
Maximum altitude 02:19:04 33° 294° (WNW) 2,271 ? -24.4°
Drops below altitude 10° 02:26:33 10° 356° (N) 3,512 ? -25.1°
Sets 02:29:45 0° 6° (N) 4,442 ? -25.4°
